Time,TemperatureF,DewpointF,PressureIn,WindDirection,WindDirectionDegrees,WindSpeedMPH,WindSpeedGustMPH,Humidity,HourlyPrecipIn,Conditions,Clouds,dailyrainin,SoftwareType,DateUTC
2013-09-14 00:01:00,58.7,34.5,29.91,SSE,167,3.0,6.0,40,0.00,,,0.00,VWS V14.01,2013-09-14 05:01:00,
2013-09-14 00:06:00,58.7,34.5,29.91,SSE,167,2.0,5.0,40,0.00,,,0.00,VWS V14.01,2013-09-14 05:06:00,
2013-09-14 00:11:00,58.9,34.0,29.91,SSE,158,6.0,6.0,39,0.00,,,0.00,VWS V14.01,2013-09-14 05:11:00,
2013-09-14 00:16:00,58.9,34.0,29.91,SSE,161,2.0,6.0,39,0.00,,,0.00,VWS V14.01,2013-09-14 05:16:00,
2013-09-14 00:21:00,58.9,34.0,29.90,South,179,5.0,6.0,39,0.00,,,0.00,VWS V14.01,2013-09-14 05:21:00,
2013-09-14 00:26:00,58.9,36.5,29.90,South,179,2.0,6.0,43,0.00,,,0.00,VWS V14.01,2013-09-14 05:26:00,
2013-09-14 00:31:00,58.7,36.3,29.90,South,179,5.0,7.0,43,0.00,,,0.00,VWS V14.01,2013-09-14 05:31:00,
2013-09-14 00:36:00,58.6,37.9,29.90,South,179,3.0,7.0,46,0.00,,,0.00,VWS V14.01,2013-09-14 05:36:00,
2013-09-14 00:41:00,58.6,37.9,29.90,South,179,4.0,7.0,46,0.00,,,0.00,VWS V14.01,2013-09-14 05:41:00,
2013-09-14 00:46:00,58.6,39.0,29.90,SSW,196,3.0,8.0,48,0.00,,,0.00,VWS V14.01,2013-09-14 05:46:00,
2013-09-14 00:51:00,58.4,39.8,29.90,SSW,196,3.0,5.0,50,0.00,,,0.00,VWS V14.01,2013-09-14 05:51:00,
2013-09-14 00:56:00,58.6,40.0,29.90,South,175,2.0,7.0,50,0.00,,,0.00,VWS V14.01,2013-09-14 05:56:00,
2013-09-14 01:01:00,58.7,38.5,29.90,SSW,199,5.0,10.0,47,0.00,,,0.00,VWS V14.01,2013-09-14 06:01:00,
2013-09-14 01:06:00,58.9,38.2,29.90,SSW,199,5.0,7.0,46,0.00,,,0.00,VWS V14.01,2013-09-14 06:06:00,
2013-09-14 01:11:00,59.0,37.1,29.90,South,186,3.0,7.0,44,0.00,,,0.00,VWS V14.01,2013-09-14 06:11:00,
2013-09-14 01:16:00,59.2,36.1,29.90,South,188,4.0,7.0,42,0.00,,,0.00,VWS V14.01,2013-09-14 06:16:00,
2013-09-14 01:21:00,59.5,35.8,29.91,SSW,195,4.0,8.0,41,0.00,,,0.00,VWS V14.01,2013-09-14 06:21:00,
2013-09-14 01:26:00,59.6,34.6,29.91,SSW,195,4.0,8.0,39,0.00,,,0.00,VWS V14.01,2013-09-14 06:26:00,
2013-09-14 01:31:00,59.8,31.4,29.91,SSW,193,5.0,8.0,34,0.00,,,0.00,VWS V14.01,2013-09-14 06:31:00,
2013-09-14 01:36:00,59.9,32.9,29.91,SSW,196,5.0,6.0,36,0.00,,,0.00,VWS V14.01,2013-09-14 06:36:00,
2013-09-14 01:41:00,59.9,30.8,29.91,South,181,3.0,6.0,33,0.00,,,0.00,VWS V14.01,2013-09-14 06:41:00,
2013-09-14 01:46:00,60.1,29.4,29.91,South,182,5.0,7.0,31,0.00,,,0.00,VWS V14.01,2013-09-14 06:46:00,
2013-09-14 01:51:00,60.2,27.9,29.91,South,191,5.0,7.0,29,0.00,,,0.00,VWS V14.01,2013-09-14 06:51:00,
2013-09-14 01:56:00,60.2,25.2,29.91,South,182,5.0,7.0,26,0.00,,,0.00,VWS V14.01,2013-09-14 06:56:00,
2013-09-14 02:01:00,60.5,18.1,29.91,South,185,6.0,11.0,19,0.00,,,0.00,VWS V14.01,2013-09-14 07:01:00,
2013-09-14 02:06:00,60.9,14.4,29.90,SSW,193,6.0,10.0,16,0.00,,,0.00,VWS V14.01,2013-09-14 07:06:00,
2013-09-14 02:11:00,61.0,14.5,29.90,South,178,7.0,12.0,16,0.00,,,0.00,VWS V14.01,2013-09-14 07:11:00,
2013-09-14 02:16:00,61.2,11.6,29.90,South,188,3.0,12.0,14,0.00,,,0.00,VWS V14.01,2013-09-14 07:16:00,
2013-09-14 02:21:00,61.2,4.2,29.90,SSW,192,2.0,10.0,10,0.00,,,0.00,VWS V14.01,2013-09-14 07:21:00,
2013-09-14 02:26:00,61.2,-0.6,29.90,South,188,7.0,10.0,8,0.00,,,0.00,VWS V14.01,2013-09-14 07:26:00,
2013-09-14 02:31:00,61.2,8.2,29.90,South,169,3.0,10.0,12,0.00,,,0.00,VWS V14.01,2013-09-14 07:31:00,
2013-09-14 02:36:00,61.0,13.0,29.90,South,175,2.0,6.0,15,0.00,,,0.00,VWS V14.01,2013-09-14 07:36:00,
2013-09-14 02:41:00,60.9,17.1,29.90,South,174,1.0,6.0,18,0.00,,,0.00,VWS V14.01,2013-09-14 07:41:00,
2013-09-14 02:46:00,60.5,20.4,29.90,South,174,3.0,6.0,21,0.00,,,0.00,VWS V14.01,2013-09-14 07:46:00,
2013-09-14 02:51:00,60.2,25.2,29.89,SSE,161,3.0,6.0,26,0.00,,,0.00,VWS V14.01,2013-09-14 07:51:00,
2013-09-14 02:56:00,60.1,26.9,29.89,South,188,5.0,7.0,28,0.00,,,0.00,VWS V14.01,2013-09-14 07:56:00,
2013-09-14 03:01:00,59.9,27.6,29.89,South,191,2.0,7.0,29,0.00,,,0.00,VWS V14.01,2013-09-14 08:01:00,
2013-09-14 03:06:00,59.8,28.3,29.88,South,189,4.0,6.0,30,0.00,,,0.00,VWS V14.01,2013-09-14 08:06:00,
2013-09-14 03:11:00,59.8,25.8,29.88,SSW,192,5.0,6.0,27,0.00,,,0.00,VWS V14.01,2013-09-14 08:11:00,
2013-09-14 03:16:00,59.9,21.0,29.88,SSW,195,2.0,8.0,22,0.00,,,0.00,VWS V14.01,2013-09-14 08:16:00,
2013-09-14 03:21:00,59.9,17.6,29.87,SSE,162,2.0,8.0,19,0.00,,,0.00,VWS V14.01,2013-09-14 08:21:00,
2013-09-14 03:26:00,59.9,19.9,29.87,South,186,7.0,8.0,21,0.00,,,0.00,VWS V14.01,2013-09-14 08:26:00,
2013-09-14 03:31:00,59.9,18.8,29.87,South,174,3.0,8.0,20,0.00,,,0.00,VWS V14.01,2013-09-14 08:31:00,
2013-09-14 03:36:00,59.9,19.9,29.87,South,181,5.0,8.0,21,0.00,,,0.00,VWS V14.01,2013-09-14 08:36:00,
2013-09-14 03:41:00,59.9,21.0,29.87,South,169,3.0,10.0,22,0.00,,,0.00,VWS V14.01,2013-09-14 08:41:00,
2013-09-14 03:46:00,59.9,19.9,29.87,South,171,0.0,10.0,21,0.00,,,0.00,VWS V14.01,2013-09-14 08:46:00,
2013-09-14 03:51:00,59.9,15.0,29.86,SSW,199,5.0,7.0,17,0.00,,,0.00,VWS V14.01,2013-09-14 08:51:00,
2013-09-14 03:56:00,60.1,10.8,29.86,South,189,5.0,7.0,14,0.00,,,0.00,VWS V14.01,2013-09-14 08:56:00,
2013-09-14 04:01:00,60.1,13.8,29.86,South,184,5.0,10.0,16,0.00,,,0.00,VWS V14.01,2013-09-14 09:01:00,
2013-09-14 04:06:00,60.1,16.5,29.86,South,189,5.0,8.0,18,0.00,,,0.00,VWS V14.01,2013-09-14 09:06:00,
2013-09-14 04:11:00,60.1,16.5,29.86,SSW,202,4.0,8.0,18,0.00,,,0.00,VWS V14.01,2013-09-14 09:11:00,
2013-09-14 04:16:00,59.9,16.3,29.86,SSW,196,2.0,8.0,18,0.00,,,0.00,VWS V14.01,2013-09-14 09:16:00,
2013-09-14 04:21:00,60.1,16.5,29.87,SSW,202,2.0,6.0,18,0.00,,,0.00,VWS V14.01,2013-09-14 09:21:00,
2013-09-14 04:26:00,60.1,17.7,29.87,SSW,202,2.0,6.0,19,0.00,,,0.00,VWS V14.01,2013-09-14 09:26:00,
2013-09-14 04:31:00,60.1,15.2,29.87,South,191,5.0,7.0,17,0.00,,,0.00,VWS V14.01,2013-09-14 09:31:00,
2013-09-14 04:36:00,60.1,12.3,29.88,SSW,199,2.0,7.0,15,0.00,,,0.00,VWS V14.01,2013-09-14 09:36:00,
2013-09-14 04:41:00,59.9,15.0,29.88,South,186,8.0,8.0,17,0.00,,,0.00,VWS V14.01,2013-09-14 09:41:00,
2013-09-14 04:46:00,59.9,18.8,29.88,South,185,2.0,8.0,20,0.00,,,0.00,VWS V14.01,2013-09-14 09:46:00,
2013-09-14 04:51:00,59.8,19.8,29.87,South,176,5.0,7.0,21,0.00,,,0.00,VWS V14.01,2013-09-14 09:51:00,
2013-09-14 04:56:00,59.8,19.8,29.87,South,178,2.0,10.0,21,0.00,,,0.00,VWS V14.01,2013-09-14 09:56:00,
2013-09-14 05:01:00,59.6,23.8,29.87,SSW,195,7.0,10.0,25,0.00,,,0.00,VWS V14.01,2013-09-14 10:01:00,
2013-09-14 05:06:00,59.5,23.7,29.87,SSE,151,5.0,7.0,25,0.00,,,0.00,VWS V14.01,2013-09-14 10:06:00,
2013-09-14 05:11:00,59.5,25.5,29.87,SSE,161,5.0,7.0,27,0.00,,,0.00,VWS V14.01,2013-09-14 10:11:00,
2013-09-14 05:16:00,59.5,26.4,29.87,SSW,202,5.0,10.0,28,0.00,,,0.00,VWS V14.01,2013-09-14 10:16:00,
2013-09-14 05:21:00,59.5,26.4,29.87,South,179,2.0,7.0,28,0.00,,,0.00,VWS V14.01,2013-09-14 10:21:00,
2013-09-14 05:26:00,59.5,28.1,29.87,South,184,6.0,8.0,30,0.00,,,0.00,VWS V14.01,2013-09-14 10:26:00,
2013-09-14 05:31:00,59.5,28.9,29.87,SSW,193,3.0,8.0,31,0.00,,,0.00,VWS V14.01,2013-09-14 10:31:00,
2013-09-14 05:36:00,59.5,27.2,29.87,South,191,7.0,7.0,29,0.00,,,0.00,VWS V14.01,2013-09-14 10:36:00,
2013-09-14 05:41:00,59.5,31.1,29.87,South,191,2.0,7.0,34,0.00,,,0.00,VWS V14.01,2013-09-14 10:41:00,
2013-09-14 05:46:00,59.3,33.0,29.87,South,191,3.0,7.0,37,0.00,,,0.00,VWS V14.01,2013-09-14 10:46:00,
2013-09-14 05:51:00,59.2,33.6,29.87,SSE,164,5.0,7.0,38,0.00,,,0.00,VWS V14.01,2013-09-14 10:51:00,
2013-09-14 05:56:00,59.2,33.6,29.87,South,188,6.0,8.0,38,0.00,,,0.00,VWS V14.01,2013-09-14 10:56:00,
2013-09-14 06:01:00,59.2,33.6,29.87,South,185,6.0,11.0,38,0.00,,,0.00,VWS V14.01,2013-09-14 11:01:00,
2013-09-14 06:06:00,59.2,30.1,29.86,South,184,5.0,7.0,33,0.00,,,0.00,VWS V14.01,2013-09-14 11:06:00,
2013-09-14 06:11:00,59.2,30.9,29.86,SSE,164,7.0,10.0,34,0.00,,,0.00,VWS V14.01,2013-09-14 11:11:00,
2013-09-14 06:16:00,59.3,27.1,29.86,South,175,3.0,10.0,29,0.00,,,0.00,VWS V14.01,2013-09-14 11:16:00,
2013-09-14 06:21:00,59.3,27.1,29.86,SSW,205,7.0,7.0,29,0.00,,,0.00,VWS V14.01,2013-09-14 11:21:00,
2013-09-14 06:26:00,59.5,26.4,29.86,South,186,5.0,11.0,28,0.00,,,0.00,VWS V14.01,2013-09-14 11:26:00,
2013-09-14 06:31:00,59.5,26.4,29.86,South,186,3.0,11.0,28,0.00,,,0.00,VWS V14.01,2013-09-14 11:31:00,
2013-09-14 06:36:00,59.5,25.5,29.85,South,185,5.0,10.0,27,0.00,,,0.00,VWS V14.01,2013-09-14 11:36:00,
2013-09-14 06:41:00,59.5,27.2,29.85,South,176,8.0,10.0,29,0.00,,,0.00,VWS V14.01,2013-09-14 11:41:00,
2013-09-14 06:46:00,59.5,28.9,29.85,South,182,4.0,10.0,31,0.00,,,0.00,VWS V14.01,2013-09-14 11:46:00,
2013-09-14 06:51:00,59.3,30.2,29.85,South,182,5.0,10.0,33,0.00,,,0.00,VWS V14.01,2013-09-14 11:51:00,
2013-09-14 06:56:00,59.3,31.7,29.85,SSW,193,5.0,10.0,35,0.00,,,0.00,VWS V14.01,2013-09-14 11:56:00,
2013-09-14 07:01:00,59.3,31.7,29.85,South,181,3.0,10.0,35,0.00,,,0.00,VWS V14.01,2013-09-14 12:01:00,
2013-09-14 07:06:00,59.3,31.7,29.86,SSW,198,3.0,9.0,35,0.00,,,0.00,VWS V14.01,2013-09-14 12:06:00,
2013-09-14 07:11:00,59.3,31.7,29.86,South,189,5.0,9.0,35,0.00,,,0.00,VWS V14.01,2013-09-14 12:11:00,
2013-09-14 07:16:00,59.3,34.4,29.86,South,189,2.0,9.0,39,0.00,,,0.00,VWS V14.01,2013-09-14 12:16:00,
2013-09-14 07:21:00,59.3,31.7,29.86,SSW,193,7.0,9.0,35,0.00,,,0.00,VWS V14.01,2013-09-14 12:21:00,
2013-09-14 07:26:00,59.5,31.1,29.86,SSW,198,7.0,10.0,34,0.00,,,0.00,VWS V14.01,2013-09-14 12:26:00,
2013-09-14 07:31:00,59.5,30.4,29.86,South,189,5.0,10.0,33,0.00,,,0.00,VWS V14.01,2013-09-14 12:31:00,
2013-09-14 07:36:00,59.5,30.4,29.86,SSW,192,5.0,12.0,33,0.00,,,0.00,VWS V14.01,2013-09-14 12:36:00,
2013-09-14 07:41:00,59.6,28.1,29.86,South,189,10.0,12.0,30,0.00,,,0.00,VWS V14.01,2013-09-14 12:41:00,
2013-09-14 07:46:00,59.8,26.6,29.86,SSW,193,7.0,12.0,28,0.00,,,0.00,VWS V14.01,2013-09-14 12:46:00,
2013-09-14 07:51:00,59.8,26.6,29.87,South,182,2.0,9.0,28,0.00,,,0.00,VWS V14.01,2013-09-14 12:51:00,
2013-09-14 07:56:00,59.9,26.7,29.87,SSW,192,5.0,9.0,28,0.00,,,0.00,VWS V14.01,2013-09-14 12:56:00,
2013-09-14 08:01:00,59.9,25.0,29.87,SSW,200,5.0,9.0,26,0.00,,,0.00,VWS V14.01,2013-09-14 13:01:00,
2013-09-14 08:06:00,59.9,25.9,29.86,South,191,5.0,11.0,27,0.00,,,0.00,VWS V14.01,2013-09-14 13:06:00,
2013-09-14 08:11:00,59.9,26.7,29.86,SSW,199,6.0,11.0,28,0.00,,,0.00,VWS V14.01,2013-09-14 13:11:00,
2013-09-14 08:16:00,59.9,26.7,29.86,SSW,202,7.0,11.0,28,0.00,,,0.00,VWS V14.01,2013-09-14 13:16:00,
2013-09-14 08:21:00,59.9,26.7,29.87,SSW,195,4.0,8.0,28,0.00,,,0.00,VWS V14.01,2013-09-14 13:21:00,
2013-09-14 08:26:00,60.1,26.0,29.87,SSW,196,6.0,11.0,27,0.00,,,0.00,VWS V14.01,2013-09-14 13:26:00,
2013-09-14 08:31:00,60.1,26.9,29.87,South,185,3.0,11.0,28,0.00,,,0.00,VWS V14.01,2013-09-14 13:31:00,
2013-09-14 08:36:00,60.1,24.2,29.87,SSW,193,6.0,10.0,25,0.00,,,0.00,VWS V14.01,2013-09-14 13:36:00,
2013-09-14 08:41:00,60.2,23.3,29.87,South,178,7.0,12.0,24,0.00,,,0.00,VWS V14.01,2013-09-14 13:41:00,
2013-09-14 08:46:00,60.2,24.3,29.87,SSW,193,6.0,12.0,25,0.00,,,0.00,VWS V14.01,2013-09-14 13:46:00,
2013-09-14 08:51:00,60.2,24.3,29.86,South,191,7.0,11.0,25,0.00,,,0.00,VWS V14.01,2013-09-14 13:51:00,
2013-09-14 08:56:00,60.2,21.2,29.86,South,188,9.0,14.0,22,0.00,,,0.00,VWS V14.01,2013-09-14 13:56:00,
2013-09-14 09:01:00,60.4,24.4,29.86,South,189,5.0,14.0,25,0.00,,,0.00,VWS V14.01,2013-09-14 14:01:00,
2013-09-14 09:06:00,60.4,25.4,29.86,South,188,5.0,8.0,26,0.00,,,0.00,VWS V14.01,2013-09-14 14:06:00,
2013-09-14 09:11:00,60.4,25.4,29.86,South,188,6.0,8.0,26,0.00,,,0.00,VWS V14.01,2013-09-14 14:11:00,
2013-09-14 09:16:00,60.4,25.4,29.86,South,182,7.0,11.0,26,0.00,,,0.00,VWS V14.01,2013-09-14 14:16:00,
2013-09-14 09:21:00,60.4,27.2,29.86,SSW,192,6.0,12.0,28,0.00,,,0.00,VWS V14.01,2013-09-14 14:21:00,
2013-09-14 09:26:00,60.5,28.1,29.86,SSW,198,7.0,12.0,29,0.00,,,0.00,VWS V14.01,2013-09-14 14:26:00,
2013-09-14 09:31:00,60.5,27.3,29.86,South,189,7.0,12.0,28,0.00,,,0.00,VWS V14.01,2013-09-14 14:31:00,
2013-09-14 09:36:00,60.7,27.4,29.86,South,188,6.0,12.0,28,0.00,,,0.00,VWS V14.01,2013-09-14 14:36:00,
2013-09-14 09:41:00,61.0,25.0,29.86,SSW,199,6.0,12.0,25,0.00,,,0.00,VWS V14.01,2013-09-14 14:41:00,
2013-09-14 09:46:00,61.2,19.8,29.86,South,184,10.0,12.0,20,0.00,,,0.00,VWS V14.01,2013-09-14 14:46:00,
2013-09-14 09:51:00,61.5,18.9,29.86,South,189,7.0,19.0,19,0.00,,,0.00,VWS V14.01,2013-09-14 14:51:00,
2013-09-14 09:56:00,61.8,10.5,29.86,SSW,198,7.0,19.0,13,0.00,,,0.00,VWS V14.01,2013-09-14 14:56:00,
2013-09-14 10:01:00,62.3,7.1,29.86,ESE,109,6.0,19.0,11,0.00,,,0.00,VWS V14.01,2013-09-14 15:01:00,
2013-09-14 10:06:00,62.4,-5.7,29.85,SSW,192,7.0,12.0,6,0.00,,,0.00,VWS V14.01,2013-09-14 15:06:00,
2013-09-14 10:11:00,62.4,-5.7,29.85,South,188,9.0,14.0,6,0.00,,,0.00,VWS V14.01,2013-09-14 15:11:00,
2013-09-14 10:16:00,62.4,-2.5,29.85,South,185,6.0,14.0,7,0.00,,,0.00,VWS V14.01,2013-09-14 15:16:00,
2013-09-14 10:21:00,62.6,-19.4,29.85,SSW,203,7.0,13.0,3,0.00,,,0.00,VWS V14.01,2013-09-14 15:21:00,
2013-09-14 10:26:00,62.6,-13.8,29.85,South,186,12.0,21.0,4,0.00,,,0.00,VWS V14.01,2013-09-14 15:26:00,
2013-09-14 10:31:00,62.7,-27.0,29.85,SSW,195,9.0,21.0,2,0.00,,,0.00,VWS V14.01,2013-09-14 15:31:00,
2013-09-14 10:36:00,62.7,-19.3,29.84,SSW,198,7.0,16.0,3,0.00,,,0.00,VWS V14.01,2013-09-14 15:36:00,
2013-09-14 10:41:00,62.9,-9.1,29.84,South,185,12.0,16.0,5,0.00,,,0.00,VWS V14.01,2013-09-14 15:41:00,
2013-09-14 10:46:00,62.9,-13.6,29.84,SSE,165,7.0,16.0,4,0.00,,,0.00,VWS V14.01,2013-09-14 15:46:00,
2013-09-14 10:51:00,62.9,-19.2,29.84,SSW,198,17.0,17.0,3,0.00,,,0.00,VWS V14.01,2013-09-14 15:51:00,
2013-09-14 10:56:00,63.2,-13.4,29.84,SE,137,6.0,19.0,4,0.00,,,0.00,VWS V14.01,2013-09-14 15:56:00,
2013-09-14 11:01:00,63.4,-26.5,29.84,South,186,8.0,19.0,2,0.00,,,0.00,VWS V14.01,2013-09-14 16:01:00,
2013-09-14 11:06:00,63.9,-18.5,29.83,South,178,6.0,13.0,3,0.00,,,0.00,VWS V14.01,2013-09-14 16:06:00,
2013-09-14 11:11:00,64.2,-26.0,29.83,SSW,192,11.0,17.0,2,0.00,,,0.00,VWS V14.01,2013-09-14 16:11:00,
2013-09-14 11:16:00,64.3,-12.6,29.83,SSW,192,6.0,17.0,4,0.00,,,0.00,VWS V14.01,2013-09-14 16:16:00,
2013-09-14 11:21:00,64.3,-25.9,29.83,South,178,7.0,18.0,2,0.00,,,0.00,VWS V14.01,2013-09-14 16:21:00,
2013-09-14 11:26:00,64.2,6.5,29.83,South,174,5.0,18.0,10,0.00,,,0.00,VWS V14.01,2013-09-14 16:26:00,
2013-09-14 11:31:00,64.0,1.5,29.83,SSE,164,9.0,18.0,8,0.00,,,0.00,VWS V14.01,2013-09-14 16:31:00,
2013-09-14 11:36:00,64.0,6.4,29.83,SSW,198,14.0,15.0,10,0.00,,,0.00,VWS V14.01,2013-09-14 16:36:00,
2013-09-14 11:41:00,64.5,-12.4,29.83,South,184,5.0,15.0,4,0.00,,,0.00,VWS V14.01,2013-09-14 16:41:00,
2013-09-14 11:46:00,64.8,-12.2,29.83,South,191,7.0,15.0,4,0.00,,,0.00,VWS V14.01,2013-09-14 16:46:00,
2013-09-14 11:51:00,65.8,0.0,29.82,SSW,208,10.0,12.0,0,0.00,,,0.00,VWS V14.01,2013-09-14 16:51:00,
2013-09-14 11:56:00,66.1,0.0,29.82,SSW,198,7.0,12.0,0,0.00,,,0.00,VWS V14.01,2013-09-14 16:56:00,
2013-09-14 12:01:00,66.1,0.0,29.82,SSW,192,12.0,20.0,0,0.00,,,0.00,VWS V14.01,2013-09-14 17:01:00,
2013-09-14 12:06:00,66.4,0.0,29.82,SSW,192,14.0,18.0,0,0.00,,,0.00,VWS V14.01,2013-09-14 17:06:00,
2013-09-14 12:11:00,66.6,0.0,29.82,SSW,195,8.0,18.0,0,0.00,,,0.00,VWS V14.01,2013-09-14 17:11:00,
2013-09-14 12:16:00,66.1,0.0,29.82,South,186,12.0,18.0,0,0.00,,,0.00,VWS V14.01,2013-09-14 17:16:00,
2013-09-14 12:21:00,66.0,0.0,29.83,South,185,6.0,13.0,0,0.00,,,0.00,VWS V14.01,2013-09-14 17:21:00,
2013-09-14 12:26:00,66.3,0.0,29.83,South,179,12.0,13.0,0,0.00,,,0.00,VWS V14.01,2013-09-14 17:26:00,
2013-09-14 12:31:00,66.3,0.0,29.83,SW,219,14.0,19.0,0,0.00,,,0.00,VWS V14.01,2013-09-14 17:31:00,
2013-09-14 12:36:00,66.6,0.0,29.82,SSW,203,11.0,12.0,0,0.00,,,0.00,VWS V14.01,2013-09-14 17:36:00,
2013-09-14 12:41:00,67.3,0.0,29.82,SW,224,14.0,14.0,0,0.00,,,0.00,VWS V14.01,2013-09-14 17:41:00,
2013-09-14 12:46:00,67.6,0.0,29.82,South,182,10.0,18.0,0,0.00,,,0.00,VWS V14.01,2013-09-14 17:46:00,
2013-09-14 12:51:00,67.6,0.0,29.81,SSW,195,14.0,16.0,0,0.00,,,0.00,VWS V14.01,2013-09-14 17:51:00,
2013-09-14 12:56:00,68.3,0.0,29.81,South,191,10.0,17.0,0,0.00,,,0.00,VWS V14.01,2013-09-14 17:56:00,
2013-09-14 13:01:00,68.8,0.0,29.81,SSW,192,13.0,17.0,0,0.00,,,0.00,VWS V14.01,2013-09-14 18:01:00,
2013-09-14 13:06:00,68.3,0.0,29.81,SSW,195,12.0,14.0,0,0.00,,,0.00,VWS V14.01,2013-09-14 18:06:00,
2013-09-14 13:11:00,68.1,0.0,29.81,SSW,192,10.0,17.0,0,0.00,,,0.00,VWS V14.01,2013-09-14 18:11:00,
2013-09-14 13:16:00,67.9,0.0,29.81,SSW,193,8.0,18.0,0,0.00,,,0.00,VWS V14.01,2013-09-14 18:16:00,
2013-09-14 13:21:00,68.4,0.0,29.80,SSW,200,13.0,18.0,0,0.00,,,0.00,VWS V14.01,2013-09-14 18:21:00,
2013-09-14 13:26:00,68.9,0.0,29.80,SSW,193,7.0,18.0,0,0.00,,,0.00,VWS V14.01,2013-09-14 18:26:00,
2013-09-14 13:31:00,69.4,0.0,29.80,South,182,17.0,18.0,0,0.00,,,0.00,VWS V14.01,2013-09-14 18:31:00,
2013-09-14 13:36:00,69.9,0.0,29.78,SSW,198,10.0,16.0,0,0.00,,,0.00,VWS V14.01,2013-09-14 18:36:00,
2013-09-14 13:41:00,70.3,0.0,29.78,South,175,4.0,17.0,0,0.00,,,0.00,VWS V14.01,2013-09-14 18:41:00,
2013-09-14 13:46:00,70.1,0.0,29.78,SSW,199,7.0,17.0,0,0.00,,,0.00,VWS V14.01,2013-09-14 18:46:00,
2013-09-14 13:51:00,70.3,0.0,29.78,SSW,195,7.0,17.0,0,0.00,,,0.00,VWS V14.01,2013-09-14 18:51:00,
2013-09-14 13:56:00,70.1,0.0,29.78,South,188,8.0,17.0,0,0.00,,,0.00,VWS V14.01,2013-09-14 18:56:00,
2013-09-14 14:01:00,70.3,0.0,29.78,South,178,5.0,17.0,0,0.00,,,0.00,VWS V14.01,2013-09-14 19:01:00,
2013-09-14 14:06:00,70.4,0.0,29.77,South,188,8.0,12.0,0,0.00,,,0.00,VWS V14.01,2013-09-14 19:06:00,
2013-09-14 14:11:00,70.6,0.0,29.77,South,186,14.0,15.0,0,0.00,,,0.00,VWS V14.01,2013-09-14 19:11:00,
2013-09-14 14:16:00,70.6,0.0,29.77,SSE,165,4.0,18.0,0,0.00,,,0.00,VWS V14.01,2013-09-14 19:16:00,
2013-09-14 14:21:00,70.8,0.0,29.77,South,186,7.0,12.0,0,0.00,,,0.00,VWS V14.01,2013-09-14 19:21:00,
2013-09-14 14:26:00,71.3,0.0,29.77,SSW,192,12.0,14.0,0,0.00,,,0.00,VWS V14.01,2013-09-14 19:26:00,
2013-09-14 14:31:00,71.6,0.0,29.77,South,189,9.0,14.0,0,0.00,,,0.00,VWS V14.01,2013-09-14 19:31:00,
2013-09-14 14:36:00,72.3,0.0,29.76,SSW,193,7.0,17.0,0,0.00,,,0.00,VWS V14.01,2013-09-14 19:36:00,
2013-09-14 14:41:00,72.8,0.0,29.76,SSE,155,8.0,17.0,0,0.00,,,0.00,VWS V14.01,2013-09-14 19:41:00,
2013-09-14 14:46:00,72.7,0.0,29.76,SSW,202,9.0,17.0,0,0.00,,,0.00,VWS V14.01,2013-09-14 19:46:00,
2013-09-14 14:51:00,72.3,0.0,29.75,South,185,5.0,17.0,0,0.00,,,0.00,VWS V14.01,2013-09-14 19:51:00,
2013-09-14 14:56:00,72.3,0.0,29.75,SSW,196,9.0,17.0,0,0.00,,,0.00,VWS V14.01,2013-09-14 19:56:00,
2013-09-14 15:01:00,72.1,0.0,29.75,SSW,202,13.0,19.0,0,0.00,,,0.00,VWS V14.01,2013-09-14 20:01:00,
2013-09-14 15:06:00,72.0,0.0,29.76,South,188,10.0,17.0,0,0.00,,,0.00,VWS V14.01,2013-09-14 20:06:00,
2013-09-14 15:11:00,71.6,0.0,29.76,SSW,192,8.0,17.0,0,0.00,,,0.00,VWS V14.01,2013-09-14 20:11:00,
2013-09-14 15:16:00,71.6,0.0,29.76,SSW,212,10.0,17.0,0,0.00,,,0.00,VWS V14.01,2013-09-14 20:16:00,
2013-09-14 15:21:00,71.5,0.0,29.75,South,181,8.0,13.0,0,0.00,,,0.00,VWS V14.01,2013-09-14 20:21:00,
2013-09-14 15:26:00,71.6,0.0,29.75,South,188,10.0,13.0,0,0.00,,,0.00,VWS V14.01,2013-09-14 20:26:00,
2013-09-14 15:31:00,72.0,0.0,29.75,SSW,195,12.0,15.0,0,0.00,,,0.00,VWS V14.01,2013-09-14 20:31:00,
2013-09-14 15:36:00,72.3,0.0,29.73,SSW,212,10.0,19.0,0,0.00,,,0.00,VWS V14.01,2013-09-14 20:36:00,
2013-09-14 15:41:00,72.0,0.0,29.73,SSW,199,11.0,19.0,0,0.00,,,0.00,VWS V14.01,2013-09-14 20:41:00,
2013-09-14 15:46:00,72.1,0.0,29.73,SSW,196,6.0,19.0,0,0.00,,,0.00,VWS V14.01,2013-09-14 20:46:00,
2013-09-14 15:51:00,72.3,0.0,29.74,South,186,7.0,10.0,0,0.00,,,0.00,VWS V14.01,2013-09-14 20:51:00,
2013-09-14 15:56:00,73.5,0.0,29.74,South,188,12.0,18.0,0,0.00,,,0.00,VWS V14.01,2013-09-14 20:56:00,
2013-09-14 16:01:00,74.0,0.0,29.74,South,189,8.0,19.0,0,0.00,,,0.00,VWS V14.01,2013-09-14 21:01:00,
2013-09-14 16:06:00,75.1,0.0,29.73,SW,223,14.0,17.0,0,0.00,,,0.00,VWS V14.01,2013-09-14 21:06:00,
2013-09-14 16:11:00,75.1,0.0,29.73,SSW,200,17.0,17.0,0,0.00,,,0.00,VWS V14.01,2013-09-14 21:11:00,
2013-09-14 16:16:00,74.9,0.0,29.73,South,181,10.0,17.0,0,0.00,,,0.00,VWS V14.01,2013-09-14 21:16:00,
2013-09-14 16:21:00,75.1,0.0,29.72,South,172,6.0,13.0,0,0.00,,,0.00,VWS V14.01,2013-09-14 21:21:00,
2013-09-14 16:26:00,75.1,0.0,29.72,South,188,12.0,17.0,0,0.00,,,0.00,VWS V14.01,2013-09-14 21:26:00,
2013-09-14 16:31:00,75.3,0.0,29.72,SSW,192,10.0,17.0,0,0.00,,,0.00,VWS V14.01,2013-09-14 21:31:00,
2013-09-14 16:36:00,75.1,0.0,29.71,South,188,10.0,14.0,0,0.00,,,0.00,VWS V14.01,2013-09-14 21:36:00,
2013-09-14 16:41:00,75.3,0.0,29.71,SSW,193,10.0,14.0,0,0.00,,,0.00,VWS V14.01,2013-09-14 21:41:00,
2013-09-14 16:46:00,75.1,0.0,29.71,South,176,8.0,17.0,0,0.00,,,0.00,VWS V14.01,2013-09-14 21:46:00,
2013-09-14 16:51:00,75.1,0.0,29.71,SSW,193,4.0,13.0,0,0.00,,,0.00,VWS V14.01,2013-09-14 21:51:00,
2013-09-14 16:56:00,75.3,0.0,29.71,SSW,208,17.0,17.0,0,0.00,,,0.00,VWS V14.01,2013-09-14 21:56:00,
2013-09-14 17:01:00,75.1,0.0,29.71,SSW,193,6.0,19.0,0,0.00,,,0.00,VWS V14.01,2013-09-14 22:01:00,
2013-09-14 17:06:00,75.1,0.0,29.71,SSW,202,14.0,17.0,0,0.00,,,0.00,VWS V14.01,2013-09-14 22:06:00,
2013-09-14 17:11:00,75.3,0.0,29.71,South,188,7.0,17.0,0,0.00,,,0.00,VWS V14.01,2013-09-14 22:11:00,
2013-09-14 17:16:00,75.3,0.0,29.71,SSW,192,3.0,17.0,0,0.00,,,0.00,VWS V14.01,2013-09-14 22:16:00,
2013-09-14 17:21:00,75.4,0.0,29.71,South,191,14.0,14.0,0,0.00,,,0.00,VWS V14.01,2013-09-14 22:21:00,
2013-09-14 17:26:00,76.0,0.0,29.71,SSW,192,7.0,14.0,0,0.00,,,0.00,VWS V14.01,2013-09-14 22:26:00,
2013-09-14 17:31:00,75.8,0.0,29.71,SSW,203,12.0,16.0,0,0.00,,,0.00,VWS V14.01,2013-09-14 22:31:00,
2013-09-14 17:36:00,75.8,0.0,29.71,SSW,198,12.0,15.0,0,0.00,,,0.00,VWS V14.01,2013-09-14 22:36:00,
2013-09-14 17:41:00,75.6,0.0,29.71,South,189,7.0,15.0,0,0.00,,,0.00,VWS V14.01,2013-09-14 22:41:00,
2013-09-14 17:46:00,75.6,0.0,29.71,South,185,7.0,15.0,0,0.00,,,0.00,VWS V14.01,2013-09-14 22:46:00,
2013-09-14 17:49:00,75.8,0.0,29.71,South,184,5.0,7.0,0,0.00,,,0.00,VWS V14.01,2013-09-14 22:49:00,
2013-09-14 17:54:00,75.8,0.0,29.71,SSW,195,10.0,12.0,0,0.00,,,0.00,VWS V14.01,2013-09-14 22:54:00,
2013-09-14 17:59:00,75.6,0.0,29.71,SSE,165,5.0,12.0,0,0.00,,,0.00,VWS V14.01,2013-09-14 22:59:00,
2013-09-14 18:04:00,75.6,0.0,29.70,South,186,2.0,6.0,0,0.00,,,0.00,VWS V14.01,2013-09-14 23:04:00,
2013-09-14 18:09:00,75.1,0.0,29.70,SSW,193,11.0,11.0,0,0.00,,,0.00,VWS V14.01,2013-09-14 23:09:00,
2013-09-14 18:14:00,74.6,0.0,29.70,SSE,165,5.0,11.0,0,0.00,,,0.00,VWS V14.01,2013-09-14 23:14:00,
2013-09-14 18:19:00,74.0,-19.6,29.71,South,186,3.0,6.0,2,0.00,,,0.00,VWS V14.01,2013-09-14 23:19:00,
2013-09-14 18:24:00,73.9,-5.9,29.71,South,188,2.0,7.0,4,0.00,,,0.00,VWS V14.01,2013-09-14 23:24:00,
2013-09-14 18:29:00,73.9,6.0,29.71,South,186,9.0,10.0,7,0.00,,,0.00,VWS V14.01,2013-09-14 23:29:00,
2013-09-14 18:34:00,74.0,6.1,29.70,South,182,14.0,14.0,7,0.00,,,0.00,VWS V14.01,2013-09-14 23:34:00,
2013-09-14 18:39:00,74.4,-19.4,29.70,SSW,193,7.0,14.0,2,0.00,,,0.00,VWS V14.01,2013-09-14 23:39:00,
2013-09-14 18:44:00,74.4,-19.4,29.70,South,191,7.0,14.0,2,0.00,,,0.00,VWS V14.01,2013-09-14 23:44:00,
2013-09-14 18:49:00,74.4,-0.9,29.70,SSW,196,8.0,8.0,5,0.00,,,0.00,VWS V14.01,2013-09-14 23:49:00,
2013-09-14 18:54:00,74.2,-1.0,29.70,South,189,5.0,10.0,5,0.00,,,0.00,VWS V14.01,2013-09-14 23:54:00,
2013-09-14 18:59:00,74.0,6.1,29.70,South,189,4.0,10.0,7,0.00,,,0.00,VWS V14.01,2013-09-14 23:59:00,
2013-09-14 19:04:00,73.9,6.0,29.70,South,188,5.0,7.0,7,0.00,,,0.00,VWS V14.01,2013-09-15 00:04:00,
2013-09-14 19:09:00,73.7,11.4,29.70,SSW,196,6.0,7.0,9,0.00,,,0.00,VWS V14.01,2013-09-15 00:09:00,
2013-09-14 19:14:00,73.3,13.5,29.70,SSW,196,4.0,8.0,10,0.00,,,0.00,VWS V14.01,2013-09-15 00:14:00,
2013-09-14 19:19:00,73.0,13.3,29.70,SSW,195,8.0,8.0,10,0.00,,,0.00,VWS V14.01,2013-09-15 00:19:00,
2013-09-14 19:24:00,72.7,17.2,29.70,South,189,4.0,11.0,12,0.00,,,0.00,VWS V14.01,2013-09-15 00:24:00,
2013-09-14 19:29:00,72.3,18.7,29.70,South,189,5.0,11.0,13,0.00,,,0.00,VWS V14.01,2013-09-15 00:29:00,
2013-09-14 19:34:00,72.1,23.5,29.70,SSW,192,5.0,5.0,16,0.00,,,0.00,VWS V14.01,2013-09-15 00:34:00,
2013-09-14 19:39:00,72.0,26.2,29.70,SSW,192,5.0,7.0,18,0.00,,,0.00,VWS V14.01,2013-09-15 00:39:00,
2013-09-14 19:44:00,71.6,29.6,29.70,SSW,192,7.0,7.0,21,0.00,,,0.00,VWS V14.01,2013-09-15 00:44:00,
2013-09-14 19:49:00,71.5,30.7,29.70,South,184,5.0,7.0,22,0.00,,,0.00,VWS V14.01,2013-09-15 00:49:00,
2013-09-14 19:54:00,71.5,30.7,29.70,South,184,2.0,7.0,22,0.00,,,0.00,VWS V14.01,2013-09-15 00:54:00,
2013-09-14 19:59:00,71.3,34.7,29.70,South,185,2.0,7.0,26,0.00,,,0.00,VWS V14.01,2013-09-15 00:59:00,
2013-09-14 20:04:00,71.3,34.7,29.70,South,185,3.0,5.0,26,0.00,,,0.00,VWS V14.01,2013-09-15 01:04:00,
2013-09-14 20:09:00,71.1,35.5,29.70,South,181,3.0,6.0,27,0.00,,,0.00,VWS V14.01,2013-09-15 01:09:00,
2013-09-14 20:14:00,70.9,37.1,29.70,South,181,3.0,6.0,29,0.00,,,0.00,VWS V14.01,2013-09-15 01:14:00,
2013-09-14 20:19:00,70.8,37.9,29.69,South,181,5.0,5.0,30,0.00,,,0.00,VWS V14.01,2013-09-15 01:19:00,
2013-09-14 20:24:00,70.4,42.2,29.69,South,186,6.0,6.0,36,0.00,,,0.00,VWS V14.01,2013-09-15 01:24:00,
2013-09-14 20:29:00,70.3,43.5,29.69,South,188,6.0,7.0,38,0.00,,,0.00,VWS V14.01,2013-09-15 01:29:00,
2013-09-14 20:34:00,70.1,45.3,29.69,South,189,4.0,7.0,41,0.00,,,0.00,VWS V14.01,2013-09-15 01:34:00,
2013-09-14 20:39:00,70.1,46.6,29.69,South,189,2.0,7.0,43,0.00,,,0.00,VWS V14.01,2013-09-15 01:39:00,
2013-09-14 20:44:00,69.9,47.0,29.69,South,191,5.0,7.0,44,0.00,,,0.00,VWS V14.01,2013-09-15 01:44:00,
2013-09-14 20:49:00,69.9,46.4,29.70,South,191,4.0,7.0,43,0.00,,,0.00,VWS V14.01,2013-09-15 01:49:00,
2013-09-14 20:54:00,69.8,49.2,29.70,South,185,6.0,8.0,48,0.00,,,0.00,VWS V14.01,2013-09-15 01:54:00,
2013-09-14 20:59:00,69.9,49.3,29.70,South,186,2.0,8.0,48,0.00,,,0.00,VWS V14.01,2013-09-15 01:59:00,
2013-09-14 21:04:00,69.8,49.2,29.70,South,186,5.0,7.0,48,0.00,,,0.00,VWS V14.01,2013-09-15 02:04:00,
2013-09-14 21:09:00,69.8,49.2,29.70,South,188,5.0,8.0,48,0.00,,,0.00,VWS V14.01,2013-09-15 02:09:00,
2013-09-14 21:14:00,69.8,50.9,29.70,South,188,5.0,8.0,51,0.00,,,0.00,VWS V14.01,2013-09-15 02:14:00,
2013-09-14 21:19:00,69.6,51.2,29.70,South,188,2.0,5.0,52,0.00,,,0.00,VWS V14.01,2013-09-15 02:19:00,
2013-09-14 21:24:00,69.4,52.5,29.70,South,188,3.0,5.0,55,0.00,,,0.00,VWS V14.01,2013-09-15 02:24:00,
2013-09-14 21:29:00,69.4,52.0,29.70,South,188,2.0,7.0,54,0.00,,,0.00,VWS V14.01,2013-09-15 02:29:00,
2013-09-14 21:34:00,69.3,53.0,29.70,South,188,3.0,5.0,56,0.00,,,0.00,VWS V14.01,2013-09-15 02:34:00,
2013-09-14 21:39:00,69.1,54.2,29.70,South,188,3.0,6.0,59,0.00,,,0.00,VWS V14.01,2013-09-15 02:39:00,
2013-09-14 21:44:00,69.1,54.2,29.70,South,188,2.0,6.0,59,0.00,,,0.00,VWS V14.01,2013-09-15 02:44:00,
2013-09-14 21:49:00,69.1,54.7,29.70,South,188,0.0,2.0,60,0.00,,,0.00,VWS V14.01,2013-09-15 02:49:00,
2013-09-14 21:54:00,68.9,54.9,29.70,South,188,0.0,2.0,61,0.00,,,0.00,VWS V14.01,2013-09-15 02:54:00,
2013-09-14 21:59:00,68.8,55.3,29.70,South,188,0.0,2.0,62,0.00,,,0.00,VWS V14.01,2013-09-15 02:59:00,
2013-09-14 22:04:00,68.8,55.3,29.71,South,188,0.0,0.0,62,0.00,,,0.00,VWS V14.01,2013-09-15 03:04:00,
2013-09-14 22:09:00,68.6,56.0,29.71,South,188,0.0,0.0,64,0.00,,,0.00,VWS V14.01,2013-09-15 03:09:00,
2013-09-14 22:14:00,68.6,56.8,29.71,South,188,0.0,0.0,66,0.00,,,0.00,VWS V14.01,2013-09-15 03:14:00,
2013-09-14 22:19:00,68.4,57.4,29.71,South,188,0.0,0.0,68,0.00,,,0.00,VWS V14.01,2013-09-15 03:19:00,
2013-09-14 22:24:00,68.6,57.6,29.71,South,188,0.0,2.0,68,0.00,,,0.00,VWS V14.01,2013-09-15 03:24:00,
2013-09-14 22:29:00,68.6,57.2,29.71,South,188,0.0,2.0,67,0.00,,,0.00,VWS V14.01,2013-09-15 03:29:00,
2013-09-14 22:34:00,68.6,57.6,29.71,South,188,0.0,2.0,68,0.00,,,0.00,VWS V14.01,2013-09-15 03:34:00,
2013-09-14 22:39:00,68.6,57.6,29.71,South,188,0.0,2.0,68,0.00,,,0.00,VWS V14.01,2013-09-15 03:39:00,
2013-09-14 22:44:00,68.6,58.0,29.71,South,188,0.0,2.0,69,0.00,,,0.00,VWS V14.01,2013-09-15 03:44:00,
2013-09-14 22:49:00,68.6,58.4,29.71,South,188,0.0,0.0,70,0.00,,,0.00,VWS V14.01,2013-09-15 03:49:00,
2013-09-14 22:54:00,68.6,59.2,29.71,South,188,0.0,0.0,72,0.00,,,0.00,VWS V14.01,2013-09-15 03:54:00,
2013-09-14 22:59:00,68.6,59.6,29.71,South,188,0.0,1.0,73,0.00,,,0.00,VWS V14.01,2013-09-15 03:59:00,
2013-09-14 23:01:00,68.6,59.6,29.71,South,188,0.0,1.0,73,0.00,,,0.00,VWS V14.01,2013-09-15 04:01:00,
2013-09-14 23:02:00,68.6,59.6,29.71,South,188,0.0,1.0,73,0.00,,,0.00,VWS V14.01,2013-09-15 04:02:00,
2013-09-14 23:07:00,68.6,60.0,29.71,South,188,0.0,2.0,74,0.00,,,0.00,VWS V14.01,2013-09-15 04:07:00,
2013-09-14 23:12:00,68.6,60.4,29.71,South,188,0.0,3.0,75,0.00,,,0.00,VWS V14.01,2013-09-15 04:12:00,
2013-09-14 23:17:00,68.8,60.9,29.71,South,188,1.0,5.0,76,0.00,,,0.00,VWS V14.01,2013-09-15 04:17:00,
2013-09-14 23:22:00,68.8,61.3,29.70,South,188,0.0,3.0,77,0.00,,,0.00,VWS V14.01,2013-09-15 04:22:00,
2013-09-14 23:27:00,68.8,62.0,29.70,South,174,5.0,5.0,79,0.00,,,0.00,VWS V14.01,2013-09-15 04:27:00,
2013-09-14 23:32:00,68.8,62.7,29.70,South,174,2.0,5.0,81,0.00,,,0.00,VWS V14.01,2013-09-15 04:32:00,
2013-09-14 23:37:00,68.8,63.1,29.70,South,174,3.0,7.0,82,0.00,,,0.00,VWS V14.01,2013-09-15 04:37:00,
2013-09-14 23:42:00,68.8,64.4,29.70,South,174,1.0,7.0,86,0.00,,,0.00,VWS V14.01,2013-09-15 04:42:00,
2013-09-14 23:47:00,68.9,64.6,29.70,South,174,2.0,7.0,86,0.00,,,0.00,VWS V14.01,2013-09-15 04:47:00,
2013-09-14 23:52:00,68.9,66.5,29.69,South,188,2.0,7.0,92,0.00,,,0.00,VWS V14.01,2013-09-15 04:52:00,
2013-09-14 23:57:00,68.9,68.9,29.69,South,188,2.0,7.0,100,0.00,,,0.00,VWS V14.01,2013-09-15 04:57:00,